[[{"header":{"parameterUnit":"m.s-1","parameterCategory":1,"la1":30.2991,"la2":30.254,"lo1":-89.0895,"lo2":-89.0444,"dy":0.0017,"dx":0.0017,"nx":28,"ny":28,"refTime":"2024-04-17T03:00:00:Z","depth":0,"parameterNumber":2,"parameterNumberName":"U-component_of_WINDS"},"data":[0,0,0,0,0,0,0,0,0,0,0,0,0,0,0,0,0,0,0,0,0,0,0,0,0,0,0,0,0,0,0,0,0,0,0,0,0,0,0,0,0,0,0,0,0,0,0,0,0,0,0,0,0,0,0,0,0,0,-2.6051,-2.6051,0,-2.6072,-2.6072,-2.6072,-2.6033,-2.6032,-2.603,-2.6029,-2.6051,-2.6053,-2.6055,0,0,0,0,0,0,0,0,0,0,0,0,0,-2.5977,-2.5979,-2.6051,-2.6051,-2.6051,-2.6072,-2.6072,-2.6072,-2.6033,-2.6032,-2.603,-2.6029,-2.6051,-2.6053,-2.6055,0,0,0,0,0,0,0,0,0,0,0,0,0,-2.6005,-2.5979,-2.6051,-2.6034,-2.6033,-2.6072,-2.6072,-2.6073,-2.6034,-2.6032,-2.603,-2.6028,-2.605,-2.6053,-2.6055,-2.6111,0,0,-2.6064,-2.6065,0,0,0,0,0,0,0,0,-2.6003,-2.6007,-2.6036,-2.6035,-2.6034,-2.6048,-2.6054,-2.6086,-2.6034,-2.6033,-2.6029,-2.6027,-2.6052,-2.6054,-2.6062,-2.6112,-2.6113,-2.6064,-2.6065,-2.6067,-2.6067,0,0,0,0,0,0,0,-2.6001,-2.6006,-2.6059,-2.6037,-2.6035,-2.6026,-2.6028,-2.606,-2.6053,-2.6033,-2.6031,-2.6034,-2.6051,-2.606,-2.6063,-2.6114,-2.6064,-2.6066,-2.6068,-2.6069,-2.621,-2.6213,0,0,0,0,0,0,-2.6001,-2.6005,-2.6058,-2.606,-2.6013,-2.6029,-2.6031,-2.6045,-2.6053,-2.6052,-2.6035,-2.6032,-2.6056,-2.606,-2.6063,-2.6129,-2.6067,-2.6069,-2.6071,-2.6208,-2.6211,-2.6213,0,0,0,0,0,0,-2.6,-2.6007,-2.6058,-2.6032,-2.6037,-2.6032,-2.6049,-2.6047,-2.6056,-2.6054,-2.6053,-2.6046,-2.6055,-2.606,-2.61,-2.6129,-2.607,-2.6073,-2.6206,-2.6209,-2.6212,-2.6261,0,0,0,0,0,0,-2.5998,-2.6006,-2.6027,-2.6032,-2.6039,-2.6093,-2.6051,-2.6049,-2.6061,-2.6056,-2.6064,-2.6063,-2.6054,-2.6096,-2.6102,-2.6132,-2.6075,-2.6203,-2.6207,-2.6211,-2.6257,-2.6266,-2.6273,0,0,0,0,0,-2.5996,-2.604,-2.6029,-2.6035,-2.6065,-2.6095,-2.6099,-2.6087,-2.6063,-2.6084,-2.6083,-2.6063,-2.6125,-2.61,-2.6107,-2.6138,-2.6201,-2.6206,-2.6211,-2.6253,-2.6264,-2.6273,0,0,0,0,0,0,-2.6039,-2.6041,-2.6028,-2.6075,-2.6086,-2.6089,-2.6115,-2.6099,-2.6116,-2.6111,-2.6095,-2.6098,-2.6141,-2.6144,-2.6116,-2.6193,-2.6159,-2.6166,-2.6189,-2.6199,-2.6208,-2.6206,-2.6077,0,0,0,0,0,-2.6054,-2.6078,-2.6079,-2.6121,-2.6127,-2.612,-2.6133,-2.6123,-2.6132,-2.6136,-2.6138,-2.6149,-2.6171,-2.6185,-2.6205,-2.6258,-2.6259,-2.6282,-2.6291,-2.6297,-2.6303,-2.6331,-2.6341,-2.6229,-2.6229,-2.6229,0,0,-2.6085,-2.609,-2.6106,-2.613,-2.6136,-2.6162,-2.6124,-2.6152,-2.6171,-2.6141,-2.6179,-2.6181,-2.6191,-2.6238,-2.6258,-2.6241,-2.6334,-2.6303,-2.6309,-2.6311,-2.6337,-2.6347,-2.6357,-2.6232,-2.6232,-2.6231,0,0,-2.6156,-2.6161,-2.6197,-2.6204,-2.6215,-2.621,-2.6219,-2.6225,-2.6225,-2.6263,-2.624,-2.6263,-2.6301,-2.6309,-2.6319,-2.6393,-2.6375,-2.64,-2.6442,-2.647,-2.6478,-2.6486,-2.6512,-2.6522,-2.6406,-2.6406,-2.6406,0,-2.6193,-2.6231,-2.6217,-2.6247,-2.6259,-2.6233,-2.6269,-2.6277,-2.6293,-2.6302,-2.6283,-2.633,-2.6335,-2.6383,-2.6402,-2.641,-2.642,-2.6399,-2.6478,-2.6486,-2.6493,-2.6518,-2.6528,-2.6409,-2.6408,-2.6408,-2.6408,0,-2.6276,-2.6303,-2.633,-2.6347,-2.6361,-2.6395,-2.6386,-2.6403,-2.6392,-2.6389,-2.6428,-2.6434,-2.6455,-2.6465,-2.6455,-2.6512,-2.6501,-2.6481,-2.6446,-2.6507,-2.653,-2.6539,-2.6413,-2.6412,-2.6411,-2.641,0,0,-2.6374,-2.6383,-2.6393,-2.64,-2.6411,-2.6431,-2.6463,-2.6483,-2.6497,-2.651,-2.6536,-2.6569,-2.655,-2.6561,-2.6551,-2.6576,-2.6634,-2.6552,-2.6552,-2.6566,-2.6697,-2.6712,-2.6723,-2.6622,-2.6624,-2.6625,-2.6696,0,-2.6443,-2.6498,-2.6487,-2.6541,-2.6565,-2.6541,-2.6569,-2.6578,-2.6577,-2.6598,-2.6596,-2.662,-2.6593,-2.66,-2.6622,-2.6622,-2.666,-2.6617,-2.6646,-2.6647,-2.6644,-2.6735,-2.6751,-2.6817,-2.6705,-2.6706,-2.6707,0,-2.6531,-2.6547,-2.6603,-2.6609,-2.6619,-2.6644,-2.6662,-2.6682,-2.6692,-2.669,-2.6702,-2.6688,-2.672,-2.6686,-2.673,-2.6701,-2.6713,-2.6715,-2.6717,-2.6718,-2.668,-2.6739,-2.6838,-2.6848,-2.6721,-2.672,-2.6719,0,-2.6595,-2.6631,-2.6669,-2.6676,-2.6685,-2.6703,-2.6708,-2.6716,-2.6729,-2.6745,-2.6753,-2.6772,-2.6783,-2.6798,-2.679,-2.6766,-2.6835,-2.6801,-2.6834,-2.6834,-2.6849,-2.6848,-2.6951,-2.6858,-2.6858,-2.6858,-2.6857,0,-2.6674,-2.6709,-2.6698,-2.6722,-2.6761,-2.6748,-2.6787,-2.6789,-2.6797,-2.682,-2.6801,-2.6823,-2.6811,-2.6833,-2.6827,-2.6864,-2.6869,-2.6868,-2.6866,-2.6869,-2.6869,-2.6876,-2.6871,-2.686,-2.686,-2.6859,-2.6859,0,-2.6752,-2.6747,-2.6786,-2.6791,-2.6794,-2.6822,-2.6826,-2.6848,-2.6846,-2.6876,-2.6882,-2.6879,-2.6903,-2.6897,-2.6923,-2.6919,-2.6966,-2.6958,-2.6962,-2.696,-2.6994,-2.699,-2.7104,-2.7118,-2.7016,-2.7017,-2.7018,0,-2.6802,-2.6828,-2.6836,-2.6851,-2.6857,-2.688,-2.6893,-2.6882,-2.6897,-2.6911,-2.6931,-2.6954,-2.6971,-2.7012,-2.7012,-2.7032,-2.7024,-2.7063,-2.7027,-2.703,-2.7024,-2.7022,-2.7025,-2.7069,-2.7071,-2.7072,-2.7072,0,-2.6891,-2.6887,-2.6907,-2.6926,-2.6942,-2.6956,-2.6969,-2.6982,-2.6972,-2.6989,-2.7014,-2.7028,-2.7055,-2.7078,-2.7097,-2.7101,-2.7085,-2.7084,-2.7092,-2.7096,-2.7097,-2.7096,-2.6981,-2.7081,-2.708,-2.7079,-2.7079,-2.7079,-2.6956,-2.6979,-2.6988,-2.701,-2.7019,-2.7031,-2.7052,-2.7053,-2.7073,-2.7094,-2.7087,-2.7115,-2.7125,-2.7149,-2.7156,-2.7178,-2.7163,-2.7176,-2.7179,-2.7182,-2.7186,-2.7094,-2.7181,-2.7181,-2.7181,-2.7181,-2.718,0,-2.7044,-2.7049,-2.707,-2.7088,-2.7106,-2.709,-2.7103,-2.7119,-2.7144,-2.7155,-2.7173,-2.7201,-2.7223,-2.7225,-2.7246,-2.7263,-2.7257,-2.7269,-2.7267,-2.7269,-2.7198,-2.7188,-2.7274,-2.7274,-2.7274,-2.7274,-2.7274,-2.7274,-2.7091,-2.7128,-2.7126,-2.7167,-2.7172,-2.7199,-2.7208,-2.722,-2.7228,-2.7261,-2.7279,-2.728,-2.7287,-2.7309,-2.7328,-2.7328,-2.7337,-2.7352,-2.7349,-2.7283,-2.7274,-2.7265,-2.7255,-2.7354,-2.7354,-2.7418,-2.7418,-2.7419]},{"header":{"parameterUnit":"m.s-1","parameterCategory":1,"la1":30.2991,"la2":30.254,"lo1":-89.0895,"lo2":-89.0444,"dy":0.0017,"dx":0.0017,"nx":28,"ny":28,"refTime":"2024-04-17T03:00:00:Z","depth":0,"parameterNumber":3,"parameterNumberName":"V-component_of_WINDS"},"data":[0,0,0,0,0,0,0,0,0,0,0,0,0,0,0,0,0,0,0,0,0,0,0,0,0,0,0,0,0,0,0,0,0,0,0,0,0,0,0,0,0,0,0,0,0,0,0,0,0,0,0,0,0,0,0,0,0,0,3.8408,3.8407,0,3.8286,3.8284,3.8283,3.8146,3.8144,3.8142,3.814,3.8011,3.8009,3.8008,0,0,0,0,0,0,0,0,0,0,0,0,0,3.8521,3.852,3.8408,3.8407,3.8405,3.8286,3.8284,3.8282,3.8146,3.8144,3.8142,3.8139,3.8011,3.801,3.8008,0,0,0,0,0,0,0,0,0,0,0,0,0,3.8443,3.8519,3.8408,3.8323,3.8314,3.8286,3.8284,3.8282,3.8147,3.8144,3.8141,3.8138,3.8012,3.801,3.8007,3.8053,0,0,3.8,3.7999,0,0,0,0,0,0,0,0,3.8447,3.8439,3.8337,3.8329,3.8319,3.8228,3.8276,3.8205,3.8148,3.821,3.814,3.8137,3.8085,3.8077,3.806,3.8047,3.8041,3.8,3.7999,3.7998,3.7997,0,0,0,0,0,0,0,3.8453,3.8443,3.8359,3.8336,3.8325,3.829,3.8275,3.8262,3.8166,3.8205,3.8194,3.8182,3.808,3.8063,3.8056,3.8039,3.8,3.7998,3.7996,3.7996,3.8057,3.806,0,0,0,0,0,0,3.8472,3.8448,3.8363,3.8356,3.8377,3.829,3.8274,3.826,3.8166,3.8149,3.8185,3.8176,3.8068,3.8059,3.8051,3.8099,3.7998,3.7995,3.7994,3.8054,3.8057,3.8061,0,0,0,0,0,0,3.8475,3.8465,3.8368,3.8399,3.8384,3.8291,3.8277,3.8259,3.8242,3.8151,3.8133,3.8185,3.8066,3.8054,3.8054,3.8092,3.7994,3.7992,3.805,3.8055,3.8059,3.8194,0,0,0,0,0,0,3.8478,3.8467,3.8484,3.8401,3.8383,3.8375,3.8279,3.8259,3.8239,3.8227,3.8147,3.813,3.8062,3.8058,3.8051,3.8087,3.799,3.8046,3.8052,3.8058,3.8186,3.8203,3.8217,0,0,0,0,0,3.8483,3.8526,3.8486,3.8476,3.8403,3.8377,3.8367,3.8289,3.8243,3.8259,3.82,3.8133,3.8089,3.8059,3.805,3.8086,3.8044,3.8051,3.8057,3.8179,3.82,3.8217,0,0,0,0,0,0,3.8615,3.8514,3.8468,3.8486,3.8441,3.8354,3.8372,3.8313,3.828,3.827,3.8173,3.8156,3.8167,3.8126,3.8094,3.8125,3.8057,3.8062,3.8152,3.8171,3.8186,3.8196,3.7988,0,0,0,0,0,3.8647,3.8636,3.8547,3.8571,3.8551,3.8466,3.8452,3.8396,3.8345,3.8325,3.8266,3.8219,3.8194,3.818,3.8152,3.8179,3.8159,3.8199,3.8215,3.8228,3.8234,3.8246,3.8263,3.8083,3.8083,3.8083,0,0,3.8711,3.8654,3.8653,3.8596,3.8555,3.8545,3.8451,3.8444,3.8435,3.8323,3.832,3.8275,3.8215,3.823,3.8232,3.8195,3.828,3.8237,3.8248,3.8247,3.8255,3.8272,3.8287,3.8088,3.8087,3.8086,0,0,3.8824,3.878,3.8796,3.8757,3.8696,3.8639,3.8644,3.8565,3.8532,3.8527,3.8443,3.8431,3.839,3.8352,3.8327,3.8426,3.8363,3.8419,3.8501,3.8514,3.8528,3.854,3.8577,3.8591,3.8425,3.8425,3.8426,0,3.8912,3.8894,3.8811,3.881,3.8787,3.8687,3.8702,3.8668,3.8601,3.8588,3.8548,3.8495,3.8448,3.8452,3.8476,3.8459,3.846,3.8428,3.8533,3.8544,3.8554,3.8588,3.8602,3.8433,3.8432,3.8431,3.843,0,3.9005,3.8994,3.9014,3.8954,3.8934,3.8941,3.8858,3.8847,3.8792,3.874,3.8736,3.8676,3.8635,3.8631,3.8577,3.8627,3.8606,3.8551,3.8481,3.8581,3.861,3.8622,3.8443,3.8441,3.8438,3.8437,0,0,3.9198,3.9093,3.9102,3.9074,3.9,3.8989,3.8991,3.8953,3.8946,3.8902,3.8902,3.887,3.8819,3.8791,3.8731,3.8743,3.8826,3.8685,3.8683,3.8715,3.8879,3.8922,3.8938,3.8784,3.8786,3.8787,3.8884,0,3.9299,3.9298,3.9224,3.9244,3.9233,3.9138,3.9139,3.9094,3.9044,3.9027,3.8971,3.8951,3.8884,3.8867,3.8873,3.8815,3.8858,3.8807,3.8782,3.8782,3.8802,3.8954,3.8999,3.9093,3.8895,3.8897,3.8898,0,3.9416,3.9382,3.9402,3.9328,3.9321,3.9324,3.9283,3.9267,3.9214,3.9177,3.9146,3.9079,3.9075,3.9008,3.9001,3.8968,3.8953,3.8923,3.8924,3.892,3.8848,3.8955,3.9121,3.9137,3.8916,3.8914,3.8913,0,3.9557,3.9516,3.9522,3.9501,3.9415,3.942,3.9384,3.9327,3.9309,3.9272,3.9259,3.9222,3.9202,3.9174,3.9099,3.9057,3.9101,3.9027,3.907,3.9073,3.9085,3.9085,3.9253,3.9074,3.9073,3.9073,3.9073,0,3.9678,3.9694,3.9585,3.9589,3.9604,3.9517,3.9534,3.9488,3.9439,3.9432,3.9346,3.9342,3.9242,3.9225,3.9166,3.917,3.9161,3.9131,3.9115,3.9139,3.9144,3.9129,3.9121,3.9077,3.9076,3.9075,3.9075,0,3.9838,3.9766,3.9767,3.9686,3.9666,3.968,3.961,3.961,3.9556,3.9548,3.9541,3.9455,3.9432,3.9354,3.931,3.927,3.9292,3.9261,3.9311,3.9301,3.935,3.9347,3.9515,3.9533,3.9342,3.9344,3.9345,0,3.9921,3.9931,3.9852,3.9842,3.981,3.9795,3.9776,3.9691,3.9675,3.9615,3.9623,3.9592,3.9564,3.953,3.9463,3.9429,3.9397,3.9459,3.9392,3.9416,3.94,3.9401,3.9402,3.9474,3.9476,3.9478,3.948,0,4.0075,4.0039,4.0017,3.9982,3.9963,3.9931,3.9893,3.989,3.9794,3.9781,3.9756,3.9735,3.9691,3.9662,3.9618,3.9579,3.9514,3.9502,3.951,3.9536,3.9565,3.9551,3.9353,3.9498,3.9497,3.9495,3.9494,3.9493,4.02,4.0205,4.0151,4.0128,4.0092,4.0059,4.0056,4.0002,3.9981,3.994,3.989,3.9872,3.9817,3.9751,3.9718,3.9702,3.9666,3.9678,3.9681,3.9686,3.9698,3.9567,3.9693,3.9692,3.9692,3.9691,3.9691,0,4.0351,4.0312,4.0292,4.0244,4.0227,4.0168,4.0124,4.0113,4.0099,4.0054,4.0029,4.0001,3.9973,3.9904,3.9869,3.987,3.9839,3.9863,3.9863,3.9856,3.9731,3.9728,3.9889,3.9889,3.9889,3.9889,3.9889,3.9889,4.0428,4.0435,4.0392,4.038,4.0339,4.0322,4.0302,4.0272,4.0236,4.021,4.0187,4.0142,4.0088,4.0048,4.002,4.0,3.9992,4.0026,3.9997,3.9883,3.9864,3.9846,3.9843,4.0025,4.0025,4.0123,4.0124,4.0124]}]]